Location: Newark
(51.7378°N, 19.8125°E)
Time: 02:23:38
(UTC+00:00)

Envisat - Pass Details

Date: 14 December 2019
Orbit: 764 x 766 km, 98.1° (Epoch: 23 January)

Event Time Altitude Azimuth Distance (km) Brightness Sun altitude
Rises 16:48:31 0° 177° (S) 3,222 6.3 -20.0°
Reaches altitude 10° 16:50:51 10° 181° (S) 2,300 5.6 -20.4°
Maximum altitude 16:55:50 56° 260° (W) 914 3.7 -21.1°
Drops below altitude 10° 17:00:51 10° 338° (NNW) 2,317 5.6 -21.9°
Sets 17:03:13 0° 343° (NNW) 3,248 6.3 -22.2°
